Regional Weather Roundup
Issued by NWS Charleston, SC

Current Version | Previous Version | Graphics & Text | Print | Product List | Glossary On
Versions: 1 2 3 4 5 6 7 8 9 10 11 12 13 14 15 16 17 18 19 20 21 22 23 24 25 26 27 28 29 30 31 32 33 34 35 36 37 38 39 40 41 42 43 44 45 46 47 48 49 50
000 ASUS42 KCHS 281912 RWRCHS REGIONAL WEATHER ROUNDUP NATIONAL WEATHER SERVICE CHARLESTON SC 300 PM EDT FRI AUG 28 2015 NOTE: "FAIR" INDICATES FEW OR NO CLOUDS BELOW 12,000 FEET WITH NO SIGNIFICANT WEATHER AND/OR OBSTRUCTIONS TO VISIBILITY. NOT ALL STATIONS ARE QUALITY CONTROLLED BY THE NATIONAL WEATHER SERVICE. USE DATA WITH CAUTION...ESPECIALLY DEWPOINT OBSERVATIONS. SCZ027-030-031-034>040-042>050-282000- ...SOUTHEAST SOUTH CAROLINA... CITY SKY/WX TMP DP RH WIND PRES REMARKS N CHARLESTON PTSUNNY 88 71 57 NE10 30.09F HX 94 WATERFRONT PRK N/A 83 74 74 NE10 30.08F HX 90 MOUNT PLEASANT FAIR 84 73 70 SE3 30.10S HX 91 JOHNS ISLAND FAIR 82 77 83 E12G17 30.10S HX 91 PINOPOLIS N/A 86 72 62 NE9 30.04F HX 92 MONCKS CORNER FAIR 86 70 58 N7 30.11S HX 90 SUMMERVILLE FAIR 88 72 58 N13 30.12S HX 94 BEAUFORT MCAS CLOUDY 86 71 60 NE8 30.09F HX 91 BEAUFORT ARPT FAIR 86 73 66 NE9 30.09F HX 93 HILTON HEAD IS PTSUNNY 82 73 74 NE7 30.11S WALTERBORO MOCLDY 88 68 51 NE6 30.11F HX 91 ALLENDALE FAIR 84 72 65 CALM 30.11F ...SOUTHERN MIDLANDS AND PEE DEE... CITY SKY/WX TMP DP RH WIND PRES REMARKS GEORGETOWN NOT AVBL KINGSTREE NOT AVBL ORANGEBURG CLOUDY 86 66 51 E14 30.13F BARNWELL FAIR 86 70 58 E8 30.13S HX 90 AIKEN FAIR 84 61 45 NE8 30.17F MANNING FAIR 84 63 48 NE8G16 30.13S COLUMBIA PTSUNNY 89 61 38 E12 30.13F SUMTER MOSUNNY 86 62 44 NE13G22 30.12F FLORENCE MOSUNNY 85 61 44 NE10 30.14F MYRTLE BEACH PTSUNNY 84 68 58 NE13 30.13F N MYRTLE BEACH MOSUNNY 86 67 52 N9G20 30.12F $$ GAZ063-065-086>088-099>101-113>116-118-119-134>141-150-282000- ...SOUTHEAST GEORGIA... CITY SKY/WX TMP DP RH WIND PRES REMARKS SAVANNAH ARPT CLOUDY 83 71 67 NE8 30.10F HUNTER AAF CLOUDY 82 76 83 NE6 30.08S FORT STEWART CLOUDY 81 73 76 NE6 30.07F STATESBORO CLOUDY 83 74 75 NE5 30.10F HX 90 SYLVANIA CLOUDY 85 75 72 E5 30.12F HX 94 CLAXTON NOT AVBL ...CSRA...CENTRAL AND FAR SOUTHEAST GEORGIA... CITY SKY/WX TMP DP RH WIND PRES REMARKS THOMSON MOSUNNY 85 71 62 NE9 30.17F HX 90 AUGUSTA-BUSH PTSUNNY 85 68 56 NE7 30.11F AUGUSTA-DANIEL PTSUNNY 87 67 51 NE12G18 30.14F HX 90 SWAINSBORO FAIR 86 73 66 NE9 30.11F HX 93 VIDALIA CLOUDY 82 72 69 E10G16 30.10S EASTMAN CLOUDY 80 80 100 E3 30.12R HX 90 HAZLEHURST FAIR 85 74 70 NE8 30.07S HX 93 ALMA TSTM 72 71 97 N3 30.07F FOG WAYCROSS CLOUDY 76 73 91 E3 30.07F JESUP MOCLDY 86 77 74 E13 30.08F HX 97 BAXLEY CLOUDY 77 73 88 NE10G21 30.07S BRUNSWICK CLOUDY 73 70 88 CALM 30.09F SAINT SIMONS LGT RAIN 73 68 84 NE10 30.07F $$ SCZ027-028-034-036>038-045-046-048>050-GAZ119-141-282000- ...LAKE AND SUPPLEMENTAL COASTAL OBSERVATIONS... STATION/POSITION TIME TEMP WIND PRES WAVE SWELL AIR SEA DIR/SP/G HT/PER HT/PER/DIR (UTC) (F) (DEG/KT/KT) (MB) (FT/S) (FT/S/D) UPR LAKE MARION NOT AVBL WINYAH BAY NOT AVBL LAKE MURRAY 1800 83 50/ 2/ 9 1020.3F ACE BASIN NERRS NOT AVBL FORT PULASKI NOT AVBL SAPELO ISLAND 1800 78 40/ 6 1019.0S $$ ANZ835-935-AMZ111-154-330-350-352-354-370-450-454-472-282000- ...C-MAN AND BUOY OBSERVATIONS... STATION/POSITION TIME TEMP WIND PRES WAVE SWELL AIR SEA DIR/SP/G HT/PER HT/PER/DIR (UTC) (F) (DEG/KT/KT) (MB) (FT/S) (FT/S/D) BUOY 41004 1850 82 85 50/ 12/ 14 1018.6F 3/ 5 2/ 9 BUOY 41008 1850 82 86 60/ 12/ 14 1018.7F 3/ 8 2/110/ 8 FOLLY BEACH CMAN 1900 82 70/ 19/ 20 1019.3F CAPERS NEARSHORE NOT AVBL FRIPP NEARSHORE NOT AVBL STATION/POSITION TIME TEMP WIND PRES WAVE SWELL AIR SEA DIR/SP/G HT/PER HT/PER/DIR (UTC) (F) (DEG/KT/KT) (MB) (FT/S) (FT/S/D) 5E ST. MARYS GA 1821 87 N/A 2/ 9 2/ 90/12 FRYING PAN BUOY 1850 81 81 50/ 19/ 23 1019.6F 5/ 5 2/130/ 9 BUOY 41025 1850 79 82 30/ 19/ 23 1019.7F 5/ 8 3/ 70/ 8 CAPE LOOKOUT NC 1800 79 40/ 21/ 22 1020.1F BUOY 41002 1850 82 84 210/ 10/ 10 1018.4F 3/11 3/110/11 BUOY 41010 1820 83 86 130/ 6/ 8 1018.3F ST AUGUSTINE FL 1900 82 87 80/ 6/ 7 1018.1F $$

USA.gov is the U.S. government's official web portal to all federal, state and local government web resources and services.